Vorticity
6 6 8 7 11 16 16 11 17 13 7 9 7 4 5 10 14 8 16 7 3 2 8 9 7 7 6 6 4 4 4 3 2 6 10 9 5 4 4 4 5 5 6 8 7 7 7 6 7
3 8 7 6 6 7 5 10 10 10 13 13 10 7 10 12 10 7 8 9 4 5 7 11 5 6 7 9 5 3 -0 0 2 3 6 10 6 3 4 5 5 5 4 6 7 6 5 9 8
8 8 2 8 8 6 3 2 4 7 8 10 7 9 11 8 11 10 8 5 4 4 3 7 5 4 5 4 10 5 2 0 -0 1 4 6 6 4 3 4 5 4 4 5 5 6 7 6 5
6 8 8 5 5 7 10 8 6 7 8 12 11 7 9 11 12 9 7 6 7 6 4 4 7 5 6 5 5 8 5 4 3 1 -1 4 5 5 4 3 5 4 4 5 5 4 6 5 5
9 10 10 8 9 9 9 9 8 13 16 7 8 12 10 9 11 9 8 7 7 6 6 6 6 3 4 4 5 6 6 8 7 7 4 1 5 5 5 3 3 4 4 3 4 6 5 6 5
6 6 7 6 7 8 8 9 13 2 9 7 13 14 9 9 10 8 8 8 6 7 6 6 7 6 7 6 4 3 4 5 6 5 7 6 4 5 5 4 4 3 3 4 3 4 6 5 6
7 6 7 6 8 8 8 8 9 9 9 1 6 7 8 12 8 9 9 8 7 6 5 5 6 6 5 6 8 9 6 4 5 6 3 5 5 2 6 5 4 4 4 4 4 4 3 6 6
8 8 6 5 5 5 5 5 6 6 9 4 7 9 8 7 7 8 8 9 9 9 9 9 9 8 7 6 6 7 8 8 7 5 4 5 3 7 4 3 4 4 4 3 3 4 4 3 6
5 4 5 6 6 7 7 8 7 7 7 5 3 9 8 8 7 6 6 6 7 7 6 5 6 7 8 8 8 10 10 8 7 9 9 4 2 5 4 7 3 0 6 3 2 3 4 4 4
6 7 10 10 13 14 13 14 15 14 14 11 11 9 8 9 10 10 10 11 11 12 11 9 8 6 5 6 7 6 7 9 10 8 7 8 7 3 3 6 5 3 9 -6 6 2 2 4 4
8 11 13 16 16 14 11 10 10 9 9 11 9 9 9 7 7 10 11 10 8 7 7 8 10 12 13 12 10 7 6 7 8 9 9 8 7 7 7 1 6 5 4 8 -2 6 4 2 4
10 10 8 7 5 3 3 4 4 5 5 6 7 9 10 10 7 4 7 11 14 15 19 18 18 14 8 6 7 9 11 9 7 6 8 8 10 6 5 7 9 9 5 4 4 2 2 8 2
8 7 6 3 4 5 6 6 6 8 8 9 8 6 3 4 9 4 1 4 2 3 4 6 2 4 14 22 15 7 5 8 7 10 10 7 8 7 10 4 4 6 20 5 6 3 5 2 6
7 7 4 3 4 4 5 5 5 7 8 9 8 6 7 7 1 2 3 2 -2 2 4 5 8 -1 0 6 13 18 16 10 5 3 6 13 9 8 7 6 6 5 4 10 4 3 7 5 5
8 6 4 4 4 4 4 4 5 9 8 8 8 8 1 3 3 6 4 5 4 3 3 6 3 1 -1 3 6 14 15 16 11 11 6 4 8 12 7 7 6 5 6 -1 -34 60 12 6 9
10 5 4 4 4 4 4 2 5 5 11 10 5 4 0 7 7 6 4 4 4 3 6 5 7 7 3 3 3 7 11 11 12 14 11 14 11 5 9 10 6 7 5 11 -58 -7 50 -8 23
8 5 5 4 3 2 3 6 3 7 4 8 9 4 -0 2 4 3 4 2 1 4 5 5 5 5 2 5 4 9 11 10 11 11 9 14 15 14 8 8 10 6 7 5 15 8 -0 4 10
5 3 3 2 5 4 4 4 4 6 4 6 7 6 10 10 7 5 4 4 6 6 4 6 7 5 4 4 5 7 13 11 6 11 10 9 9 14 17 13 8 9 7 4 5 5 9 -13 34
8 3 5 2 3 3 5 4 3 5 5 4 5 6 7 7 8 9 8 8 7 5 6 9 5 6 5 3 9 15 15 14 7 9 2 12 11 12 12 13 18 11 7 8 4 7 6 -1 -18
4 8 7 3 1 2 4 4 6 5 4 5 6 9 9 8 8 8 10 8 6 5 9 8 9 7 9 10 18 7 7 7 10 19 17 10 21 10 17 10 13 17 13 9 8 6 9 5 3
6 9 7 7 4 3 6 5 6 6 4 6 4 6 7 7 8 6 7 7 7 7 9 7 4 6 11 14 3 18 7 5 8 6 5 6 13 12 19 19 12 15 17 15 12 9 7 8 5
5 7 9 8 10 11 4 6 6 4 4 2 4 5 7 7 9 10 9 10 8 8 10 3 2 13 12 1 16 6 25 19 14 26 30 45 9 7 10 14 19 14 13 18 19 14 12 11 7
3 3 4 6 5 3 4 6 5 4 4 4 4 3 5 4 6 14 10 9 9 9 6 4 6 16 8 7 17 8 3 13 1 12 7 5 31 29 20 11 12 14 15 13 14 22 17 13 12
4 6 7 5 5 4 6 6 3 4 6 3 2 5 6 6 13 16 9 9 7 8 6 5 9 14 6 7 8 13 11 -1 3 10 10 2 12 1 18 19 20 11 16 11 12 12 18 20 14
5 4 5 7 7 5 5 5 8 6 8 3 5 7 9 12 18 16 9 7 7 8 6 5 8 13 5 7 12 11 13 0 -2 8 8 1 -2 15 5 -0 13 18 17 15 11 8 12 18 21
8 7 7 9 7 5 4 7 2 3 3 6 3 7 13 15 18 9 14 8 6 4 6 6 7 14 6 13 10 9 22 10 7 8 11 13 6 11 12 6 11 19 14 13 18 10 8 11 19
11 11 11 11 9 9 7 8 4 4 2 4 3 16 13 15 9 9 9 7 5 6 5 7 17 9 14 11 14 15 25 20 12 17 11 4 16 23 21 25 12 26 17 17 14 8 8 10 12
15 14 16 14 10 8 4 2 4 -2 4 5 10 12 13 11 19 14 10 5 6 3 9 15 7 14 13 -3 16 27 9 31 12 7 3 27 17 14 30 21 22 28 21 15 13 12 5 9 10
19 16 11 8 4 3 3 1 3 3 -1 10 8 10 12 16 15 9 5 7 5 6 9 13 11 16 4 21 21 15 8 9 24 22 31 19 7 22 17 10 26 26 23 15 12 17 8 9 9
9 9 8 7 6 3 2 1 -2 0 10 15 6 8 17 18 8 5 8 6 5 8 12 8 13 12 11 24 15 13 10 21 6 27 17 16 31 10 27 18 26 15 17 17 17 16 8 7 8
Height
5804 5805 5805 5806 5809 5809 5812 5807 5811 5813 5814 5818 5817 5817 5819 5821 5822 5822 5824 5826 5828 5828 5830 5831 5832 5833 5834 5835 5837 5839 5840 5840 5840 5841 5841 5842 5842 5843 5844 5845 5845 5845 5846 5846 5847 5847 5849 5850 5851
5801 5801 5802 5803 5804 5805 5803 5803 5805 5810 5809 5811 5812 5811 5813 5816 5816 5817 5819 5821 5822 5824 5826 5827 5828 5829 5831 5832 5833 5835 5837 5838 5838 5838 5839 5840 5841 5842 5842 5843 5843 5844 5844 5845 5846 5846 5847 5848 5849
5797 5797 5799 5799 5800 5799 5798 5799 5804 5804 5804 5806 5807 5808 5808 5810 5811 5812 5814 5815 5817 5819 5820 5822 5824 5826 5827 5828 5829 5831 5832 5834 5835 5836 5836 5837 5839 5840 5840 5841 5841 5842 5843 5844 5844 5845 5846 5847 5848
5793 5794 5795 5795 5794 5796 5795 5798 5798 5799 5800 5801 5802 5803 5804 5805 5806 5807 5809 5810 5812 5813 5814 5817 5820 5821 5823 5825 5826 5827 5828 5830 5831 5832 5833 5834 5836 5836 5838 5838 5840 5840 5841 5842 5843 5844 5845 5846 5847
5789 5790 5791 5791 5790 5793 5792 5794 5793 5795 5796 5796 5797 5798 5800 5800 5801 5802 5803 5805 5807 5807 5809 5812 5815 5816 5819 5820 5822 5823 5824 5825 5827 5828 5829 5831 5832 5834 5835 5837 5838 5839 5839 5840 5841 5843 5843 5844 5845
5787 5787 5787 5787 5787 5789 5789 5790 5790 5791 5791 5792 5794 5794 5797 5795 5797 5797 5799 5800 5802 5803 5804 5806 5809 5810 5813 5815 5817 5819 5820 5821 5823 5824 5824 5826 5828 5830 5831 5833 5835 5836 5837 5838 5839 5840 5841 5842 5843
5783 5783 5783 5783 5784 5785 5786 5786 5787 5787 5787 5788 5789 5789 5792 5791 5792 5792 5794 5795 5796 5798 5799 5801 5803 5804 5806 5809 5811 5813 5814 5816 5817 5819 5820 5822 5824 5826 5828 5829 5831 5832 5833 5834 5835 5836 5838 5839 5841
5780 5780 5780 5780 5781 5782 5782 5782 5783 5783 5783 5783 5784 5785 5787 5787 5788 5789 5789 5790 5792 5793 5794 5796 5797 5799 5800 5802 5804 5807 5808 5810 5811 5813 5815 5817 5819 5821 5822 5825 5826 5827 5829 5830 5831 5832 5834 5835 5836
5776 5777 5777 5777 5777 5778 5778 5778 5778 5778 5779 5779 5780 5781 5782 5783 5784 5784 5785 5786 5788 5789 5790 5790 5792 5793 5794 5795 5797 5799 5801 5804 5805 5806 5808 5810 5812 5814 5816 5818 5820 5822 5823 5824 5826 5827 5829 5831 5832
5773 5773 5773 5773 5772 5773 5773 5773 5774 5775 5775 5776 5776 5777 5778 5778 5779 5780 5781 5782 5783 5784 5785 5786 5787 5788 5788 5789 5790 5791 5793 5796 5798 5799 5801 5802 5803 5806 5808 5810 5813 5814 5817 5819 5821 5822 5823 5825 5827
5769 5769 5769 5769 5769 5770 5770 5771 5771 5772 5772 5773 5773 5774 5775 5776 5776 5777 5778 5778 5779 5779 5780 5780 5781 5781 5782 5783 5784 5785 5785 5787 5790 5791 5793 5794 5797 5797 5799 5802 5804 5806 5810 5813 5814 5815 5817 5819 5821
5765 5766 5766 5767 5767 5768 5769 5769 5769 5769 5770 5770 5771 5771 5772 5773 5774 5775 5775 5775 5776 5776 5776 5776 5776 5776 5776 5776 5777 5777 5778 5779 5781 5782 5784 5786 5788 5789 5790 5793 5794 5797 5800 5803 5806 5808 5810 5812 5815
5761 5762 5763 5764 5765 5765 5766 5767 5766 5766 5767 5768 5768 5768 5769 5770 5771 5771 5771 5772 5772 5772 5771 5771 5771 5771 5770 5769 5768 5769 5770 5771 5772 5773 5774 5777 5778 5780 5781 5783 5785 5788 5790 5794 5797 5797 5799 5803 5807
5757 5758 5759 5761 5761 5762 5763 5763 5763 5763 5764 5765 5765 5765 5766 5766 5766 5767 5767 5767 5767 5767 5766 5765 5764 5763 5763 5762 5761 5760 5760 5760 5762 5762 5763 5765 5768 5770 5772 5773 5774 5778 5781 5784 5787 5788 5790 5791 5796
5753 5755 5756 5757 5758 5758 5758 5760 5760 5760 5759 5761 5761 5761 5762 5762 5762 5762 5762 5762 5762 5761 5760 5759 5758 5757 5755 5754 5752 5751 5751 5750 5750 5751 5752 5753 5755 5759 5760 5762 5764 5767 5769 5773 5763 5769 5780 5781 5784
5749 5750 5752 5753 5753 5754 5754 5756 5756 5756 5755 5755 5756 5757 5757 5757 5756 5756 5756 5755 5754 5754 5753 5752 5751 5749 5747 5745 5744 5742 5741 5740 5740 5740 5740 5741 5741 5745 5748 5749 5752 5755 5756 5760 5753 5758 5767 5768 5774
5744 5746 5747 5748 5749 5750 5750 5750 5751 5752 5751 5750 5750 5751 5751 5751 5751 5750 5750 5749 5748 5747 5745 5744 5742 5740 5738 5736 5734 5732 5731 5729 5728 5728 5728 5727 5728 5730 5735 5736 5738 5742 5744 5744 5746 5750 5757 5761 5762
5739 5742 5742 5743 5746 5745 5746 5745 5745 5745 5746 5745 5744 5745 5745 5745 5744 5744 5743 5742 5740 5738 5736 5734 5732 5730 5728 5726 5723 5721 5720 5719 5717 5716 5715 5715 5715 5715 5719 5721 5722 5726 5728 5732 5735 5740 5744 5747 5750
5733 5736 5737 5738 5740 5740 5741 5741 5739 5741 5740 5739 5738 5738 5738 5737 5736 5735 5735 5734 5731 5729 5727 5724 5722 5719 5717 5714 5712 5709 5706 5705 5705 5704 5701 5700 5700 5701 5701 5707 5707 5709 5714 5716 5720 5725 5729 5732 5740
5728 5729 5731 5732 5734 5734 5736 5738 5734 5735 5735 5734 5732 5732 5731 5729 5729 5728 5727 5725 5723 5720 5718 5715 5712 5709 5706 5702 5699 5697 5696 5693 5689 5687 5689 5686 5681 5684 5687 5688 5691 5695 5697 5701 5706 5711 5716 5720 5726
5721 5723 5723 5726 5727 5728 5730 5731 5730 5730 5729 5728 5726 5725 5724 5722 5720 5720 5719 5716 5713 5711 5708 5705 5702 5698 5695 5691 5688 5685 5682 5680 5677 5673 5671 5673 5671 5665 5671 5673 5675 5676 5681 5685 5690 5695 5700 5707 5712
5713 5716 5716 5718 5719 5720 5723 5723 5723 5725 5723 5722 5720 5718 5717 5715 5714 5711 5709 5706 5703 5701 5698 5695 5691 5688 5683 5679 5677 5673 5670 5667 5664 5662 5659 5655 5656 5655 5653 5657 5661 5662 5664 5669 5673 5678 5683 5688 5697
5706 5709 5709 5710 5711 5712 5715 5715 5715 5714 5715 5715 5713 5711 5710 5708 5705 5703 5700 5697 5694 5690 5687 5683 5680 5676 5672 5668 5664 5661 5659 5655 5653 5650 5647 5644 5640 5641 5640 5641 5645 5649 5649 5653 5658 5662 5667 5676 5680
5700 5701 5701 5701 5703 5703 5707 5707 5705 5706 5706 5707 5705 5703 5701 5697 5695 5693 5690 5687 5683 5680 5676 5672 5668 5664 5660 5656 5652 5649 5646 5642 5640 5637 5635 5632 5630 5629 5629 5628 5629 5633 5637 5640 5644 5648 5653 5660 5665
5691 5692 5693 5693 5695 5695 5697 5698 5698 5697 5697 5695 5694 5693 5689 5687 5686 5682 5679 5676 5673 5670 5666 5661 5656 5652 5647 5643 5639 5635 5632 5629 5626 5624 5621 5620 5618 5617 5617 5616 5616 5618 5622 5626 5630 5634 5640 5647 5652
5681 5682 5685 5684 5686 5687 5687 5688 5690 5691 5691 5689 5688 5684 5680 5678 5676 5671 5668 5666 5663 5660 5655 5650 5645 5640 5635 5630 5625 5621 5617 5614 5611 5609 5607 5605 5603 5602 5603 5602 5602 5604 5607 5613 5618 5624 5629 5636 5640
5673 5674 5676 5676 5677 5677 5680 5680 5679 5680 5680 5681 5677 5674 5672 5669 5666 5662 5659 5657 5653 5649 5644 5639 5634 5628 5623 5617 5611 5606 5601 5597 5595 5593 5591 5589 5587 5585 5585 5586 5586 5588 5594 5600 5607 5613 5621 5626 5631
5663 5666 5667 5667 5668 5669 5670 5671 5669 5670 5671 5669 5666 5663 5663 5658 5656 5652 5650 5647 5643 5640 5635 5629 5624 5618 5612 5605 5598 5592 5587 5583 5580 5577 5576 5573 5572 5570 5570 5571 5571 5574 5580 5587 5596 5602 5611 5617 5622
5654 5655 5658 5660 5660 5660 5661 5663 5663 5662 5661 5656 5655 5656 5652 5650 5647 5645 5643 5639 5636 5631 5625 5619 5614 5607 5600 5592 5585 5579 5575 5572 5568 5564 5561 5559 5558 5556 5558 5559 5559 5563 5570 5577 5586 5594 5602 5609 5614
5645 5648 5650 5650 5652 5652 5652 5655 5653 5654 5652 5646 5644 5648 5643 5641 5639 5637 5635 5631 5627 5621 5615 5610 5603 5596 5589 5581 5574 5568 5564 5560 5556 5552 5550 5548 5546 5545 5546 5547 5549 5555 5563 5569 5578 5587 5595 5602 5608